Regional Weather Roundup
Issued by NWS State College, PA

Home | Current Version | Previous Version | Text Only | Print | Product List | Glossary On
Versions: 1 2 3 4 5 6 7 8 9 10 11 12 13 14 15 16 17 18 19 20 21 22 23 24 25 26 27 28 29 30 31 32 33 34 35 36 37 38 39 40 41 42 43 44 45 46 47 48 49 50
000
ASUS41 KCTP 232010
RWRCTP

REGIONAL WEATHER ROUNDUP
NATIONAL WEATHER SERVICE STATE COLLEGE PA
400 PM EDT WED JUL 23 2014

Note: "fair" indicates few or no clouds below 12,000 feet with no
significant weather and/or obstructions to visibility.

* = STATION THAT DOES NOT REPORT PRECIPITATION /E.G. RAIN...SNOW...ETC/
    THUNDER OR FOG.

PAZ002>004-007>009-013>016-020>023-029>032-232100-
WESTERN PENNSYLVANIA

CITY           SKY/WX    TMP DP  RH WIND       PRES   REMARKS
ERIE           CLOUDY    70  62  76 NW12      29.98F
MEADVILLE      CLOUDY    66  62  87 NW10      30.00F
FRANKLIN*      CLOUDY    66  63  88 NW7G17    30.01R
NEW CASTLE       N/A     71  67  87 NW12      29.99S
BEAVER COUNTY  CLOUDY    79  66  65 NW5G16    29.98F
BUTLER*        PTSUNNY   81  66  61 W9G16     29.98F
PITTSBURGH INT MOSUNNY   84  66  54 W17       29.96F
PITTSBURGH     MOSUNNY   82  66  58 NW13G21   29.95F
INDIANA*       MOSUNNY   82  68  61 W15G21    29.98F
LATROBE        PTSUNNY   82  72  69 W12       29.95F
WASHINGTON CO* MOSUNNY   84  68  58 NW10G18   29.97S
$$

PAZ004>006-010>012-017>019-024>028-033>037-041-042-045-046-049>053-232100-
CENTRAL PENNSYLVANIA

CITY           SKY/WX    TMP DP  RH WIND       PRES   REMARKS
BRADFORD       CLOUDY    75  66  73 NW18      29.94F
DUBOIS         CLOUDY    79  67  66 W17G25    29.93F
CLEARFIELD     TSTM      69  68  96 CALM      29.94R VSB 1/4
JOHNSTOWN      PTSUNNY   78  66  66 W14G22    29.99F
ALTOONA        PTSUNNY   83  70  64 NW10      29.93F
STATE COLLEGE  PTSUNNY   84  68  58 W9        29.89F
WILLIAMSPORT   MOSUNNY   90  68  48 SW13      29.81F
SELINSGROVE    MOSUNNY   90  71  53 VRB7      29.83F HX  96
FT INDIANTOWN  MOSUNNY   89  72  56 SW5       29.83F HX  95
CAPITAL CITY   MOSUNNY   92  70  48 S9        29.81F HX  97
HARRISBURG     MOSUNNY   93  71  48 VRB7      29.81  HX 100
YORK           MOSUNNY   91  70  49 SW9       29.84F HX  96
$$

PAZ038>040-043-044-047-048-054-055-060>062-067>071-232100-
EASTERN PENNSYLVANIA

CITY           SKY/WX    TMP DP  RH WIND       PRES   REMARKS
SCRANTON       PTSUNNY   87  68  52 W14       29.83F
MOUNT POCONO   MOSUNNY   81  69  67 SW12      29.90F
ALLENTOWN      MOSUNNY   91  70  49 SW9       29.82F HX  96
QUAKERTOWN*    PTCLDY    90  72  55 S7        29.85F HX  96
READING        MOSUNNY   90  72  55 S12       29.83F HX  97
LANCASTER      PTSUNNY   90  71  53 SW13      29.83F HX  96
COATESVILLE    PTCLDY    86  73  66 S6        29.88F
POTTSTOWN      MOSUNNY   91  69  48 SW6       29.86F HX  96
BLUE BELL      MOSUNNY   90  72  55 S9        29.84F HX  96
DOYLESTOWN     MOSUNNY   89  70  53 S8        29.83F
WILLOW GROVE   NOT AVBL
NORTH PHILA    MOSUNNY   91  68  46 SW10G20   29.85F HX  95
PHILADELPHIA   PTSUNNY   91  69  48 SW14      29.85F HX  96
$$


USA.gov is the U.S. government's official web portal to all federal, state and local government web resources and services.